User: anonymous   Login
Location: Dziadowski
(50.3833°N, 20.0333°E)
Time: 23:55:00
(UTC+00:00)
Language:

Cosmos 1140 Rocket - Orbit

View from above orbital plane
View from above orbital plane
View from above satellite
View from above satellite

Ground track
Ground track

The orbit is defined by the following mean orbital elements,

1 11574U          26067.49703762 +.00000000 +00000-0 +13070-3 0 00004
2 11574  74.0668  93.2517 0017165 266.0889  93.8305 14.42350155    05
Epoch (UTC): 08 March 2026 11:55:44
Eccentricity: 0.0017165
inclination: 74.0668°
perigee height: 739 km
apogee height: 763 km
right ascension of ascending node: 93.2517°
argument of perigee: 266.0889°
revolutions per day: 14.42350155
mean anomaly at epoch: 93.8305°

The dashed part of the orbit path shows where the satellite is in the earth's shadow,  

DLR